GW5771 Weather Reports


time (UTC)temp
C
wind
direction
speed
KPH
gust
KPH
rain 1hr
cm
rain 24hr
cm
rain mn
cm
humidity
%
barometer
mb
20260507104604 8 343 3.2 9.7 0.00 0.00 0.00 90 1008.6
20260507104106 8 339 1.6 9.7 0.00 0.00 0.00 90 1008.6
20260507103605 8 337 3.2 9.7 0.00 0.00 0.00 90 1008.6
20260507103104 8 352 1.6 8.0 0.00 0.00 0.00 91 1008.8
20260507102606 8 352 1.6 8.0 0.00 0.00 0.00 91 1008.8
20260507101604 8 344 1.6 11.3 0.00 0.00 0.00 91 1008.6
20260507101104 8 342 1.6 11.3 0.00 0.00 0.00 92 1008.4
20260507100604 8 233 1.6 4.8 0.00 0.00 0.00 92 1008.3
20260507100104 8 107 0.0 1.6 0.00 0.00 0.00 92 1008.3
20260507095604 8 356 1.6 3.2 0.00 0.00 0.00 92 1008.3
20260507095104 8 355 3.2 8.0 0.00 0.00 0.00 93 1008.3
20260507094604 8 358 4.8 8.0 0.00 0.00 0.00 92 1008.1
20260507094104 8 336 3.2 8.0 0.00 0.00 0.00 93 1008.3
20260507093605 8 19 1.6 4.8 0.00 0.00 0.00 94 1008.1
20260507093104 8 353 0.0 3.2 0.00 0.00 0.00 94 1008.2
20260507092604 8 353 0.0 4.8 0.00 0.00 0.00 94 1008.0
20260507092104 8 329 1.6 4.8 0.00 0.00 0.00 94 1008.1
20260507091105 8 359 0.0 3.2 0.00 0.00 0.00 94 1008.2
20260507090604 8 99 0.0 11.3 0.00 0.00 0.00 94 1008.2
20260507090105 8 349 0.0 9.7 0.00 0.00 0.00 94 1008.3
20260507085605 8 334 1.6 3.2 0.00 0.00 0.00 94 1008.3
20260507085105 8 359 1.6 3.2 0.00 0.00 0.00 94 1008.5
20260507084605 9 323 1.6 4.8 0.00 0.00 0.00 94 1008.7
20260507083604 8 328 1.6 3.2 0.00 0.00 0.00 94 1008.6
20260507083105 8 325 0.0 3.2 0.00 0.00 0.00 94 1008.7
20260507082604 9 131 0.0 3.2 0.00 0.00 0.00 94 1008.6
20260507082103 9 335 0.0 3.2 0.00 0.00 0.00 94 1008.5
20260507081604 8 323 0.0 0.0 0.00 0.00 0.00 93 1008.6
20260507081104 8 320 1.6 3.2 0.00 0.00 0.00 94 1008.6
20260507080605 8 128 0.0 0.0 0.00 0.00 0.00 94 1008.6
20260507080103 9 128 0.0 0.0 0.00 0.00 0.00 94 1008.4
20260507075605 9 295 0.0 0.0 0.00 0.00 0.00 94 1008.3
20260507075104 9 295 0.0 0.0 0.00 0.00 0.00 94 1008.2
20260507074604 9 295 0.0 1.6 0.00 0.00 0.00 93 1008.5
20260507074105 9 261 1.6 4.8 0.00 0.00 0.00 94 1008.5
20260507073604 9 114 0.0 3.2 0.00 0.00 0.00 93 1008.6
20260507073104 9 85 0.0 1.6 0.00 0.00 0.00 92 1008.5
20260507072604 9 348 1.6 3.2 0.00 0.00 0.00 90 1008.4
20260507072104 10 322 0.0 4.8 0.00 0.00 0.00 89 1008.4
20260507071604 10 171 3.2 4.8 0.00 0.00 0.00 86 1008.3
20260507071105 10 344 1.6 8.0 0.00 0.00 0.00 85 1008.3
20260507070604 10 331 1.6 8.0 0.00 0.00 0.00 85 1008.5
20260507070105 10 333 1.6 4.8 0.00 0.00 0.00 85 1008.1
20260507065604 10 330 4.8 9.7 0.00 0.00 0.00 84 1008.1
20260507065106 10 329 3.2 4.8 0.00 0.00 0.00 84 1007.9
20260507064606 10 341 1.6 8.0 0.00 0.00 0.00 85 1007.8
20260507064106 10 330 1.6 4.8 0.00 0.00 0.00 84 1007.7
20260507063106 10 335 3.2 4.8 0.00 0.00 0.00 84 1007.7
20260507062606 10 3 1.6 4.8 0.00 0.00 0.00 85 1007.8
20260507062106 10 8 1.6 3.2 0.00 0.00 0.00 84 1007.7
20260507061607 10 1 1.6 3.2 0.00 0.00 0.00 85 1007.9
20260507061106 10 240 1.6 3.2 0.00 0.00 0.00 86 1008.0
20260507060607 10 133 3.2 4.8 0.00 0.00 0.00 86 1008.0
20260507060107 10 338 3.2 4.8 0.00 0.00 0.00 86 1008.1
20260507055606 10 311 3.2 4.8 0.00 0.00 0.00 86 1007.9
20260507055107 11 76 1.6 8.0 0.00 0.00 0.00 86 1008.0
20260507054607 11 345 3.2 8.0 0.00 0.00 0.00 86 1007.9
20260507054107 11 65 1.6 8.0 0.00 0.00 0.00 86 1008.0
20260507053607 11 330 1.6 8.0 0.00 0.00 0.00 86 1008.2
20260507053108 11 31 0.0 4.8 0.00 0.00 0.00 86 1008.1
20260507052606 11 340 0.0 4.8 0.00 0.00 0.00 86 1008.3
20260507052106 11 348 3.2 11.3 0.00 0.00 0.00 86 1008.3
20260507051606 11 1 1.6 11.3 0.00 0.00 0.00 86 1008.4
20260507051111 11 353 3.2 8.0 0.00 0.00 0.00 86 1008.4
20260507050106 12 349 4.8 9.7 0.00 0.00 0.00 88 1008.2
20260507045606 12 347 3.2 12.9 0.00 0.00 0.00 90 1008.2
20260507045106 12 313 1.6 9.7 0.00 0.00 0.00 92 1008.2
20260507044107 12 307 1.6 4.8 0.00 0.00 0.00 93 1007.9
20260507043606 12 9 1.6 4.8 0.00 0.00 0.00 93 1008.0
20260507043106 12 296 3.2 8.0 0.00 0.00 0.00 92 1008.0
20260507042606 12 335 1.6 8.0 0.00 0.00 0.00 92 1008.1
20260507041608 12 300 3.2 4.8 0.00 0.00 0.00 92 1007.9
20260507041106 12 286 1.6 8.0 0.00 0.00 0.00 92 1007.9
20260507040606 12 107 1.6 4.8 0.00 0.00 0.00 92 1007.9
20260507040108 12 126 1.6 11.3 0.00 0.00 0.00 92 1007.9
20260507035606 12 332 4.8 11.3 0.00 0.00 0.00 92 1007.9
20260507035106 12 215 4.8 12.9 0.00 0.00 0.00 92 1008.1
20260507034606 12 333 3.2 11.3 0.00 0.00 0.00 92 1008.1
20260507034107 13 285 4.8 12.9 0.00 0.00 0.00 92 1008.2
20260507033607 13 287 4.8 9.7 0.00 0.00 0.00 92 1008.1
20260507033106 13 187 0.0 12.9 0.00 0.00 0.00 92 1007.9
20260507032608 13 319 6.4 12.9 0.00 0.00 0.00 91 1007.8
20260507032107 13 339 3.2 11.3 0.00 0.00 0.00 90 1007.8
20260507031606 14 20 3.2 11.3 0.00 0.00 0.00 89 1007.8
20260507031107 15 310 3.2 8.0 0.00 0.00 0.00 89 1007.7
20260507030606 15 300 4.8 12.9 0.00 0.00 0.00 90 1007.4
20260507030108 15 331 1.6 8.0 0.00 0.00 0.00 91 1007.2
20260507025606 15 347 3.2 8.0 0.00 0.00 0.00 91 1007.1
20260507025106 15 228 1.6 11.3 0.00 0.00 0.00 90 1007.0
20260507024606 15 157 1.6 9.7 0.00 0.00 0.00 90 1007.0
20260507024106 15 354 3.2 11.3 0.00 0.00 0.00 91 1007.2
20260507023607 15 345 3.2 14.5 0.00 0.00 0.00 91 1007.1
20260507023107 15 209 3.2 11.3 0.00 0.00 0.00 92 1007.1
20260507022606 15 248 4.8 14.5 0.00 0.00 0.00 93 1006.9
20260507022106 15 196 3.2 14.5 0.00 0.00 0.00 94 1006.7
20260507021608 15 312 3.2 14.5 0.00 0.00 0.00 94 1006.7
20260507021107 15 124 1.6 4.8 0.00 0.00 0.00 94 1006.7
20260507020606 15 215 3.2 9.7 0.00 0.00 0.00 94 1006.8
20260507020107 15 171 3.2 8.0 0.00 0.00 0.00 94 1006.8
20260507015607 15 174 3.2 9.7 0.00 0.00 0.00 94 1006.7
20260507015107 15 186 4.8 16.1 0.00 0.00 0.00 94 1006.6
20260507014606 15 115 4.8 9.7 0.00 0.00 0.00 94 1006.6
20260507014106 15 184 3.2 9.7 0.00 0.00 0.00 94 1006.7
20260507013606 15 156 3.2 16.1 0.00 0.00 0.00 94 1006.7
20260507013106 15 179 3.2 11.3 0.00 0.00 0.00 95 1006.7
20260507012606 15 201 3.2 8.0 0.00 0.00 0.00 95 1006.7
20260507012106 15 233 3.2 9.7 0.00 0.00 0.00 95 1006.6
20260507011606 15 198 4.8 9.7 0.00 0.00 0.00 95 1006.5
20260507010607 15 190 4.8 14.5 0.00 0.00 0.00 95 1006.8
20260507010106 15 249 1.6 8.0 0.00 0.00 0.00 95 1006.8
20260507005607 15 168 1.6 12.9 0.00 0.00 0.00 95 1006.9
20260507004606 15 134 4.8 11.3 0.00 0.00 0.00 95 1006.8
20260507004106 15 171 3.2 12.9 0.00 0.00 0.00 95 1006.9
20260507003606 15 348 4.8 14.5 0.00 0.00 0.00 96 1006.8
20260507003106 15 163 3.2 8.0 0.00 0.00 0.00 96 1006.8
20260507001606 15 184 3.2 8.0 0.00 0.00 0.00 96 1006.8
20260507001106 15 197 3.2 11.3 0.00 0.00 0.00 95 1006.8
20260507000606 15 188 3.2 9.7 0.00 0.00 0.00 96 1006.7
20260506235606 15 182 3.2 9.7 0.00 0.00 0.00 95 1006.7
20260506234606 14 206 4.8 12.9 0.00 0.00 0.00 96 1006.5
20260506234106 14 198 8.0 12.9 0.00 0.00 0.00 96 1006.5
20260506233106 15 216 3.2 8.0 0.00 0.00 0.00 96 1006.6
20260506232606 15 183 1.6 20.9 0.00 0.00 0.00 96 1006.5
20260506232107 15 154 4.8 12.9 0.00 0.00 0.00 96 1006.5
20260506231606 15 199 4.8 12.9 0.00 0.00 0.00 96 1006.5
20260506231106 15 184 1.6 19.3 0.00 0.00 0.00 96 1006.5
20260506230607 14 179 3.2 19.3 0.00 0.00 0.00 96 1006.4
20260506230106 14 176 1.6 8.0 0.00 0.00 0.00 96 1006.4
20260506225605 14 161 3.2 9.7 0.00 0.00 0.00 96 1006.4
20260506225106 14 178 3.2 12.9 0.00 0.00 0.00 96 1006.5
20260506223606 15 176 3.2 9.7 0.00 0.00 0.00 96 1006.5
20260506223107 15 174 3.2 14.5 0.00 0.00 0.00 96 1006.6
20260506222605 15 192 4.8 11.3 0.00 0.00 0.00 95 1006.6
20260506222105 15 173 3.2 11.3 0.00 0.00 0.00 95 1006.8
20260506221606 15 204 4.8 9.7 0.00 0.00 0.00 95 1006.8
20260506221106 15 187 4.8 9.7 0.00 0.00 0.00 96 1006.7
20260506220606 15 181 3.2 9.7 0.00 0.00 0.00 96 1006.7
20260506220105 15 190 3.2 9.7 0.00 0.00 0.00 96 1006.8
20260506215605 15 167 1.6 11.3 0.00 0.00 0.00 96 1006.9
20260506214607 15 186 6.4 12.9 0.00 0.00 0.00 96 1006.9
20260506214106 15 175 1.6 11.3 0.00 0.00 0.00 95 1006.9
20260506213606 15 188 3.2 8.0 0.00 0.00 0.00 95 1006.9
20260506213106 15 185 4.8 9.7 0.00 0.00 0.00 95 1007.0
20260506212606 15 132 3.2 11.3 0.00 0.00 0.00 95 1007.0
20260506212105 15 301 3.2 9.7 0.00 0.00 0.00 95 1007.1
20260506211606 15 201 3.2 9.7 0.00 0.00 0.00 94 1007.1
20260506211105 15 255 4.8 9.7 0.00 0.00 0.00 94 1007.2
20260506210606 15 185 4.8 12.9 0.00 0.00 0.00 94 1007.2
20260506210106 15 190 3.2 11.3 0.00 0.00 0.00 94 1007.2
20260506205106 15 209 1.6 11.3 0.00 0.00 0.00 94 1007.4
20260506204606 15 186 4.8 16.1 0.00 0.00 0.00 93 1007.4
20260506204106 15 196 8.0 12.9 0.00 0.00 0.00 94 1007.4
20260506203106 15 211 3.2 11.3 0.00 0.00 0.00 94 1007.5
20260506202605 15 253 3.2 12.9 0.00 0.00 0.00 94 1007.5
20260506202105 15 165 4.8 11.3 0.00 0.00 0.00 94 1007.6
20260506201605 15 132 6.4 20.9 0.00 0.00 0.00 94 1007.6
20260506201106 15 214 3.2 12.9 0.00 0.00 0.00 94 1007.6
20260506200607 15 194 4.8 12.9 0.00 0.00 0.00 94 1007.6
20260506200106 15 212 1.6 9.7 0.00 0.00 0.00 94 1007.6
20260506195105 15 168 6.4 9.7 0.00 0.00 0.00 94 1007.8
20260506194606 15 201 3.2 8.0 0.00 0.00 0.00 94 1007.8
20260506194106 15 219 4.8 12.9 0.00 0.00 0.00 93 1007.8
20260506193106 15 190 6.4 11.3 0.00 0.00 0.00 93 1007.9
20260506192606 15 239 4.8 11.3 0.00 0.00 0.00 93 1007.9
20260506192106 15 210 4.8 9.7 0.00 0.00 0.00 93 1008.0
20260506191606 15 211 3.2 12.9 0.00 0.00 0.00 93 1007.9
20260506190607 15 175 4.8 12.9 0.00 0.00 0.00 92 1007.9
20260506190105 15 224 4.8 12.9 0.00 0.00 0.00 92 1008.1
20260506185606 16 180 3.2 11.3 0.00 0.00 0.00 93 1007.9
20260506185106 16 181 3.2 8.0 0.00 0.00 0.00 93 1007.8
20260506184607 16 195 4.8 11.3 0.00 0.00 0.00 92 1007.9
20260506184106 16 190 3.2 9.7 0.00 0.00 0.00 92 1008.0
20260506183605 16 187 3.2 11.3 0.00 0.00 0.00 90 1008.1
20260506183105 16 197 4.8 11.3 0.00 0.00 0.00 88 1008.3
20260506182605 16 165 4.8 9.7 0.00 0.00 0.00 87 1008.4
20260506182105 17 186 3.2 12.9 0.00 0.00 0.00 87 1008.4
20260506181606 17 184 4.8 12.9 0.00 0.00 0.00 86 1008.5
20260506181105 17 221 4.8 12.9 0.00 0.00 0.00 84 1008.7
20260506180605 17 244 4.8 9.7 0.00 0.00 0.00 83 1008.6
20260506180107 17 212 3.2 8.0 0.00 0.00 0.00 81 1008.6
20260506175605 18 241 4.8 11.3 0.00 0.00 0.00 79 1008.7
20260506175105 18 219 4.8 11.3 0.00 0.00 0.00 77 1008.9
20260506174105 19 185 4.8 16.1 0.00 0.00 0.00 73 1009.0
20260506173606 20 230 6.4 14.5 0.00 0.00 0.00 71 1009.0
20260506172606 20 196 8.0 24.1 0.00 0.00 0.00 64 1008.5
20260506172106 20 177 8.0 20.9 0.00 0.00 0.00 64 1008.6
20260506171605 21 208 4.8 19.3 0.00 0.00 0.00 63 1008.3
20260506171106 21 201 8.0 20.9 0.00 0.00 0.00 62 1008.3
20260506170605 21 214 6.4 22.5 0.00 0.00 0.00 62 1008.2
20260506170106 21 204 4.8 12.9 0.00 0.00 0.00 60 1008.2
20260506165606 21 227 3.2 9.7 0.00 0.00 0.00 61 1008.1
20260506165107 21 254 3.2 19.3 0.00 0.00 0.00 61 1008.1
20260506164105 21 220 6.4 16.1 0.00 0.00 0.00 60 1008.1
20260506163606 21 262 4.8 19.3 0.00 0.00 0.00 59 1007.9
20260506163105 21 205 4.8 16.1 0.00 0.00 0.00 60 1008.3
20260506162606 21 185 3.2 14.5 0.00 0.00 0.00 61 1008.1
20260506162106 21 218 4.8 12.9 0.00 0.00 0.00 60 1008.4
20260506161106 21 211 4.8 14.5 0.00 0.00 0.00 60 1008.5
20260506160606 21 246 9.7 22.5 0.00 0.00 0.00 60 1008.8
20260506160105 21 234 4.8 16.1 0.00 0.00 0.00 62 1008.7
20260506155606 21 183 4.8 19.3 0.00 0.00 0.00 62 1008.8
20260506155107 21 223 3.2 16.1 0.00 0.00 0.00 62 1008.9
20260506154106 20 176 4.8 11.3 0.00 0.00 0.00 63 1008.8
20260506153607 20 200 3.2 11.3 0.00 0.00 0.00 64 1008.9
20260506153106 20 208 4.8 12.9 0.00 0.00 0.00 64 1009.0
20260506152605 20 227 8.0 16.1 0.00 0.00 0.00 64 1009.1
20260506152105 20 222 6.4 12.9 0.00 0.00 0.00 64 1009.3
20260506151605 20 205 3.2 14.5 0.00 0.00 0.00 64 1009.3
20260506151105 20 197 4.8 16.1 0.00 0.00 0.00 64 1009.3
20260506150605 20 230 4.8 12.9 0.00 0.00 0.00 64 1009.4
20260506150106 20 214 8.0 14.5 0.00 0.00 0.00 64 1009.4
20260506145606 20 211 3.2 11.3 0.00 0.00 0.00 65 1009.3
20260506145105 20 210 6.4 14.5 0.00 0.00 0.00 65 1009.4
20260506144605 20 207 4.8 14.5 0.00 0.00 0.00 66 1009.5
20260506144106 20 201 6.4 14.5 0.00 0.00 0.00 67 1009.4
20260506143605 20 211 8.0 14.5 0.00 0.00 0.00 67 1009.4
20260506143105 20 210 4.8 19.3 0.00 0.00 0.00 67 1009.5
20260506142605 19 200 3.2 4.8 0.00 0.00 0.00 70 1009.5
20260506142106 19 191 4.8 12.9 0.00 0.00 0.00 69 1009.4
20260506141605 19 228 8.0 14.5 0.00 0.00 0.00 70 1009.4
20260506141105 18 212 6.4 12.9 0.00 0.00 0.00 71 1009.4
20260506140606 18 202 3.2 11.3 0.00 0.00 0.00 72 1009.4
20260506135605 18 237 4.8 12.9 0.00 0.00 0.00 72 1009.3
20260506135106 18 188 3.2 14.5 0.00 0.00 0.00 72 1009.3
20260506134105 18 184 4.8 19.3 0.00 0.00 0.00 74 1009.4
20260506133607 18 213 3.2 14.5 0.00 0.00 0.00 74 1009.5
20260506133106 18 195 3.2 14.5 0.00 0.00 0.00 75 1009.3
20260506132605 18 175 4.8 16.1 0.00 0.00 0.00 75 1009.4
20260506132106 17 215 4.8 11.3 0.00 0.00 0.00 75 1009.4
20260506130606 17 200 4.8 11.3 0.00 0.00 0.00 78 1009.9
20260506125605 17 197 4.8 9.7 0.00 0.00 0.00 79 1010.3
20260506125106 17 189 6.4 14.5 0.00 0.00 0.00 79 1010.2
20260506124605 17 219 3.2 14.5 0.00 0.00 0.00 79 1010.2
20260506124106 16 182 4.8 11.3 0.00 0.00 0.00 79 1010.0
20260506123605 16 247 3.2 11.3 0.00 0.00 0.00 79 1010.0
20260506123105 16 232 1.6 12.9 0.00 0.00 0.00 80 1010.0
20260506122606 16 217 3.2 12.9 0.00 0.00 0.00 80 1009.8
20260506121605 16 192 3.2 14.5 0.00 0.00 0.00 82 1010.0
20260506121105 16 189 4.8 14.5 0.00 0.00 0.00 82 1010.3
20260506120606 16 245 3.2 11.3 0.00 0.00 0.00 82 1010.3
20260506120106 15 163 3.2 12.9 0.00 0.00 0.00 83 1010.1
20260506115605 15 223 6.4 14.5 0.00 0.00 0.00 83 1010.0
20260506115105 15 220 4.8 12.9 0.00 0.00 0.00 83 1010.1
20260506114106 15 202 4.8 9.7 0.00 0.00 0.00 84 1010.1
20260506113606 15 166 3.2 8.0 0.00 0.00 0.00 85 1010.4
20260506113106 15 252 1.6 8.0 0.00 0.00 0.00 86 1010.5
20260506112105 14 163 3.2 8.0 0.00 0.00 0.00 86 1010.6
20260506111605 14 191 3.2 8.0 0.00 0.00 0.00 86 1010.7
20260506111105 14 142 1.6 4.8 0.00 0.00 0.00 86 1011.0
20260506110605 14 233 1.6 11.3 0.00 0.00 0.00 86 1010.9
20260506105605 14 224 3.2 9.7 0.00 0.00 0.00 86 1010.6